ロニオス彗星

P/2017 Q2 ( LONEOS )

English version
Home page
Updated on October 9, 2017

---------------------------------------------------------------------

・ プロフィール

検出日 2017年8月22日
検出光度 20.6等
検出者 Pan-STARRS 1 telescope (Haleakala)

・ 写真集

・ 軌道要素

Epoch 2017 Sept. 4.0 TT = JDT 2458000.5
T 2017 Aug. 19.98807 TT                                 MPCW
q   3.1398379            (2000.0)            P               Q
n   0.09869494     Peri.  200.00868     +0.98147789     +0.16932007
a   4.6373812      Node   149.80306     -0.14237760     +0.95768995
e   0.3229287      Incl.   10.26386     -0.12817866     +0.23272444
P   9.99
From 41 observations 2007 Aug. 21-2017 Aug. 23, mean residual 0".6.

・ 光度変化

        m1 = 13.5 + 5 logΔ + 10.0 log r

---------------------------------------------------------------------

軌道要素はM.P.E.C. 2017-Q116に掲載されたものです。
光度グラフはComet for Windowsで作成したものです。

---------------------------------------------------------------------

Copyright(C) Seiichi Yoshida (comet@aerith.net). All rights reserved.